Location: Newark
(35.3063°N, 139.5103°E)
Time: 12:55:06
(UTC+00:00)

N. Korean satellite - Visible Passes

Search period start: 10 December 2019 00:00
Search period end: 20 December 2019 00:00
Orbit: 456 x 506 km, 97.2° (Epoch: 09 December)

Date Brightness Start Highest point End Pass type
(mag) Time Alt. Az. Time Alt. Az. Time Alt. Az.
10 Dec 6.6 20:47:28 10° N 20:50:52 50° WNW 20:54:13 10° SSW visible
11 Dec 10.0 08:54:40 10° WSW 08:56:22 13° W 08:58:03 10° WNW visible
11 Dec 6.9 20:21:59 10° NNE 20:25:28 64° E 20:28:52 10° S visible
12 Dec 9.1 08:27:38 10° SSW 08:30:48 27° W 08:33:59 10° NW visible
12 Dec 8.8 19:56:59 10° NE 19:59:58 26° E 20:02:55 10° SSE visible
13 Dec 7.3 08:01:40 10° S 08:05:19 61° W 08:08:59 10° NNW visible
13 Dec 9.9 19:32:59 10° ENE 19:34:23 12° E 19:35:47 10° ESE visible
13 Dec 7.3 21:04:48 10° NNW 21:07:50 28° WNW 21:10:49 10° SW visible
14 Dec 6.3 20:39:02 10° N 20:42:30 68° WNW 20:45:54 10° SSW visible
15 Dec 9.8 08:45:36 10° SW 08:47:57 16° W 08:50:18 10° NW visible
15 Dec 7.5 20:13:42 10° NNE 20:17:03 47° E 20:20:22 10° S visible
16 Dec 8.6 08:19:02 10° SSW 08:22:25 34° W 08:25:47 10° NNW visible
16 Dec 9.2 19:48:53 10° NE 19:51:32 20° E 19:54:08 10° SE visible
17 Dec 6.8 07:53:16 10° S 07:56:57 81° WSW 08:00:37 10° NNW visible
17 Dec 7.0 20:56:16 10° N 20:59:28 36° WNW 21:02:38 10° SW visible
18 Dec 6.4 20:30:37 10° NNE 20:34:05 89° E 20:37:30 10° SSW visible
19 Dec 9.6 08:36:45 10° SW 08:39:31 20° W 08:42:17 10° NW visible
19 Dec 8.1 20:05:26 10° NNE 20:08:37 35° E 20:11:46 10° SSE visible
